Location: Squirrel Cove
(50.1074°N, 124.9139°W)
Time: 18:46:10
(UTC-08:00)

Envisat - Pass Details

Date: 29 November 2022
Orbit: 763 x 765 km, 98.2° (Epoch: 05 February)

Event Time Altitude Azimuth Distance (km) Brightness Sun altitude
Rises 03:49:44 0° 21° (NNE) 3,246 6.6 -38.3°
Reaches altitude 10° 03:52:18 10° 32° (NNE) 2,315 5.9 -37.9°
Enters shadow 03:54:43 23° 54° (NE) 1,591 5.1 -37.5°
